This demonstration page uses our WeatherBlox Daily Observations layout. Learn more.

Left ArrowRight Arrow

34.02893, -84.19858

Hourly Observations for May 6, 2022

Temp ( °F °C ) Dew Point ( °F °C ) Humidity (%) Winds ( mph kmh ) Pressure ( in mb ) Visibility ( mi km ) Precip ( " mm )
12:53 am 00:53 Mostly Clear 72 22.2 64 17.8 76 76 SSW 3 6 29.88 1012 10 16 0.00 0.00
1:53 am 01:53 Mostly Clear 72 22.2 64 17.8 76 76 S 3 6 29.85 1011 10 16 0.00 0.00
2:53 am 02:53 Clear 73 22.8 63 17.2 71 71 SSW 7 11 29.82 1010 10 16 0.00 0.00
3:53 am 03:53 Clear 72 22.2 64 17.8 76 76 SW 8 13 29.80 1009 10 16 0.00 0.00
4:53 am 04:53 Clear 70 21.1 64 17.8 82 82 SSW 7 11 29.77 1008 10 16 0.00 0.00
5:53 am 05:53 Clear 69 20.6 64 17.8 84 84 SSW 8 13 29.78 1009 10 16 0.00 0.00
6:53 am 06:53 Mostly Sunny 69 20.6 64 17.8 84 84 SSW 7 11 29.79 1009 10 16 0.00 0.00
7:21 am 07:21 Mostly Cloudy 69 20.6 65 18.3 87 87 SW 14 22 29.81 1010 10 16 0.00 0.00
7:53 am 07:53 Mostly Cloudy 70 21.1 65 18.3 84 84 SSW 12 19 29.80 1009 10 16 0.00 0.00
8:10 am 08:10 Cloudy 70 21.1 65 18.3 84 84 SSW 10 17 29.81 1009 10 16 0.00 0.00
8:53 am 08:53 Cloudy 70 21.1 66 18.9 87 87 SSW 14 22 29.80 1009 10 16 0.00 0.00
9:21 am 09:21 Cloudy with Thunderstorms 70 21.1 67 19.4 90 90 SW 13 20 29.82 1010 3 5 0.02 0.51
9:24 am 09:24 Cloudy with Strong Thunderstorms 69 20.6 67 19.4 93 93 SW 12 19 29.82 1010 2 3 0.04 1.02
9:34 am 09:34 Cloudy with Thunderstorms 69 20.6 67 19.4 93 93 SW 12 19 29.82 1010 3 4 0.07 1.78
9:36 am 09:36 Cloudy with Nearby Thunderstorms 69 20.6 67 19.4 93 93 SW 12 19 29.82 1010 3 5 0.07 1.78
9:45 am 09:45 Cloudy with Nearby Thunderstorms 68 20 67 19.4 96 96 SW 7 11 29.81 1010 3 4 0.09 2.29
9:53 am 09:53 Cloudy with Nearby Thunderstorms 69 20.6 68 20 96 96 S 6 9 29.79 1009 5 8 0.10 2.54
10:02 am 10:02 Cloudy with Light Rain 69 20.6 68 20 96 96 S 7 11 29.80 1009 8 13 0.00 0.00
10:25 am 10:25 Cloudy 69 20.6 68 20 96 96 S 7 11 29.78 1009 9 14 0.00 0.00
10:53 am 10:53 Cloudy 70 21.1 69 20.6 97 97 S 6 9 29.76 1008 10 16 0.00 0.00
11:21 am 11:21 Mostly Sunny 71 21.7 69 20.6 94 94 S 9 15 29.76 1008 10 16 0.00 0.00
11:53 am 11:53 Mostly Cloudy 72 22.2 66 18.9 82 82 SSW 16 26 29.73 1007 10 16 0.00 0.00
12:53 pm 12:53 Mostly Cloudy 76 24.4 66 18.9 72 72 SSW 22 35 29.69 1005 10 16 0.00 0.00
1:53 pm 13:53 Mostly Cloudy 79 26.1 63 17.2 58 58 SW 23 37 29.65 1004 10 16 0.00 0.00
2:00 pm 14:00 Mostly Cloudy 80 26.7 62 16.7 54 54 SW 20 31 29.65 1004 10 16 0.00 0.00
2:53 pm 14:53 Mostly Cloudy 81 27.2 61 16.1 51 51 SW 18 30 29.62 1003 10 16 0.00 0.00
3:53 pm 15:53 Partly Cloudy 80 26.7 56 13.3 44 44 SW 18 30 29.60 1002 10 16 0.00 0.00
4:53 pm 16:53 Mostly Cloudy 78 25.6 54 12.2 43 43 WSW 23 37 29.61 1003 10 16 0.00 0.00
5:53 pm 17:53 Mostly Sunny 78 25.6 51 10.6 39 39 WSW 20 31 29.62 1003 10 16 0.00 0.00
6:53 pm 18:53 Mostly Cloudy 75 23.9 51 10.6 43 43 W 15 24 29.64 1004 10 16 0.00 0.00
7:53 pm 19:53 Cloudy 73 22.8 50 10 44 44 W 9 15 29.65 1004 10 16 0.00 0.00
8:53 pm 20:53 Mostly Cloudy 70 21.1 50 10 49 49 W 12 19 29.68 1005 10 16 0.00 0.00
9:53 pm 21:53 Cloudy 69 20.6 51 10.6 53 53 W 12 19 29.69 1006 10 16 0.00 0.00
10:53 pm 22:53 Cloudy 68 20 51 10.6 55 55 W 7 11 29.70 1006 10 16 0.00 0.00
11:53 pm 23:53 Cloudy 66 18.9 53 11.7 63 63 W 13 20 29.70 1006 10 16 0.00 0.00

Powered by AerisWeather